sat.trackr.live / text

‹ back to catalog

STARLING 2

NORAD 57387 · 2023-100B

PAYLOAD ACTIVE UNKNOWN

§ Identity

Operator
Country
US
Launch date
2023-07-18
Launch site
RLLB
Launch vehicle
Mass (kg)
RCS (m²)

External: N2YO · Heavens-Above · Gunter

§ Orbital elements

Epoch: 2026-09-21T22:18:51.573312Z

Period
95.55 min
Inclination
99.5045°
Eccentricity
0.0005671
Mean motion
15.07047929 rev/d
Perigee alt
541.3 km
Apogee alt
549.2 km
Semi-major
6,923.4 km
B*
8.5781e-5
RAAN
305.2554°
Arg perigee
161.1576°
Mean anomaly
198.9856°
Rev number
17,447

§ Raw data

STARLING 21 57387U 23100B   26264.92976358  .00001195  00000+0  85781-4 0  99932 57387  99.5045 305.2554 0005671 161.1576 198.9856 15.07047929174477

JSON: /api/v1/satellites/57387 · /tle

For live sub-satellite position, see the globe view (requires WebGL).

§ Visibility from observer

Set your observer location to see the next 7 days of passes ≥ 10°. The values pass through the URL so the page stays shareable.

No JS? Fill the form by hand. The geolocation button needs JavaScript.